Terminal Aerodrome Forecast
Issued by NWS

Home | Current Version | Previous Version | Text Only | Print | Product List | Glossary On
Versions: 1 2 3 4 5 6 7 8 9 10 11 12 13 14 15 16 17 18
000
FTUS43 KMQT 060524
TAFCMX
TAF
KCMX 060524Z 0606/0706 25010G18KT P6SM SKC
     FM061000 22010KT P6SM BKN100 WS015/25035KT
     FM061500 26014G20KT P6SM BKN080
     FM062000 26008KT P6SM BKN035=

USA.gov is the U.S. government's official web portal to all federal, state and local government web resources and services.